Flag for Macedonia, Republic of Weather past 2 weeks in Skopje, Macedonia, Republic of

Now
77 °F

Sunny.


Feels Like: 79 °F
Forecast: 59 / 87 °F
Wind: No wind

Location: Skopje-Petrovec

Current Time: May 6, 2015 at 11:31:43 AM

Latest Report: May 6, 2015 at 11:00 AM


Visibility: 10 mi

Pressure: 29.98 "Hg

Humidity: 51%

Dew point: 57 °F

Location of SkopjeLocation

Historic Weather in Skopje — Graph

°F

Skopje temperature yesterday

Maximum temperature yesterday: 88 °F (at 3:30 PM)
Minimum temperature yesterday: 59 °F (at 6:00 AM)
Average temperature yesterday: 74 °F

Past Weeks' High & Low Weather Summary

 TemperatureHumidityPressure
High88 °F (May 5, 3:30 PM)100% (May 3, 3:00 AM)30.21 "Hg (May 3, 3:00 AM)
Low36 °F (Apr 23, 4:00 AM)24% (Apr 21, 12:30 PM)29.68 "Hg (Apr 28, 1:00 PM)
Average60 °F62%30.00 "Hg
* Reported Apr 21 10:00 AM — May 6 10:30 AM, Skopje, Weather by CustomWeather, © 2015

Note: Actual official high and low records may vary slightly from our data, if they occured in-between our weather recording intervals... More about our weather records

Advertising

Skopje weather history for previous 24 hours

 ConditionsComfort  
Time TempWeatherWind HumidityBarometerVisibility
10:30 AM
Wed, May 6
75 °FSunny.No wind54%29.98 "Hg10 mi
9:30 AM72 °FSunny.No wind61%29.98 "Hg10 mi
9:00 AM68 °FSunny.No wind69%29.98 "Hg10 mi
8:30 AM68 °FSunny.No wind69%29.98 "Hg10 mi
8:00 AM64 °FSunny.No wind73%30.01 "Hg10 mi
7:30 AM63 °FSunny.No wind77%30.01 "Hg10 mi
7:00 AM59 °FSunny.No wind88%30.01 "Hg10 mi
6:30 AM55 °FSunny.No wind94%29.98 "Hg10 mi
5:30 AM55 °FClear.No wind88%29.98 "Hg10 mi
5:00 AM55 °FClear.1 mph88%29.98 "Hg10 mi
4:30 AM57 °FClear.1 mph88%29.98 "Hg10 mi
4:00 AM57 °FClear.1 mph88%29.95 "Hg10 mi
3:30 AM59 °FClear.2 mph82%29.95 "Hg10 mi
3:00 AM57 °FClear.2 mph88%29.95 "Hg10 mi
2:30 AM61 °FClear.5 mph83%29.95 "Hg10 mi
2:00 AM61 °FClear.1 mph77%29.95 "Hg10 mi
1:30 AM61 °FClear.1 mph83%29.95 "Hg10 mi
1:00 AM61 °FClear.2 mph83%29.98 "Hg10 mi
12:30 AM63 °FClear.1 mph77%29.98 "Hg10 mi
12:00 AM64 °FClear.1 mph78%29.98 "Hg10 mi
11:30 PM
Tue, May 5
64 °FClear.2 mph78%29.98 "Hg10 mi
10:30 PM68 °FClear.3 mph69%29.95 "Hg10 mi
10:00 PM68 °FClear.2 mph73%29.95 "Hg10 mi
9:30 PM70 °FClear.1 mph69%29.95 "Hg10 mi
9:00 PM72 °FClear.No wind65%29.95 "Hg10 mi
8:30 PM73 °FSunny.2 mph61%29.95 "Hg10 mi
8:00 PM73 °FSunny.1 mph65%29.92 "Hg10 mi
7:30 PM77 °FSunny.2 mph61%29.92 "Hg10 mi
7:00 PM81 °FSunny.3 mph58%29.92 "Hg10 mi
6:30 PM82 °FSunny.2 mph45%29.92 "Hg10 mi
6:00 PM86 °FSunny.3 mph35%29.92 "Hg10 mi
5:30 PM88 °FSunny.2 mph29%29.92 "Hg10 mi
5:00 PM88 °FSunny.1 mph29%29.92 "Hg10 mi
4:30 PM86 °FSunny.2 mph31%29.92 "Hg10 mi
4:00 PM88 °FSunny.2 mph31%29.92 "Hg10 mi
3:30 PM88 °FSunny.2 mph31%29.95 "Hg10 mi
3:00 PM86 °FSunny.3 mph33%29.95 "Hg10 mi
2:30 PM86 °FSunny.3 mph33%29.95 "Hg10 mi
2:00 PM86 °FSunny.5 mph33%29.95 "Hg10 mi
1:30 PM84 °FSunny.2 mph35%29.98 "Hg10 mi
1:00 PM84 °FSunny.2 mph35%29.98 "Hg10 mi
12:30 PM82 °FSunny.2 mph37%29.98 "Hg10 mi
12:00 PM81 °FSunny.1 mph45%30.01 "Hg10 mi
11:30 AM79 °FSunny.2 mph48%30.01 "Hg10 mi
11:00 AM77 °FSunny.1 mph51%30.01 "Hg10 mi
Weather by CustomWeather, © 2015

See weather overviewHow to use our weather pages